Regional Weather Roundup
Issued by NWS Pendleton, OR

Home | Current Version | Previous Version | Text Only | Print | Product List | Glossary On
Versions: 1 2 3 4 5 6 7 8 9 10 11 12 13 14 15 16 17 18 19 20 21 22 23 24 25 26 27 28 29 30 31 32 33 34 35 36 37 38 39 40 41 42 43 44 45 46 47 48 49 50
000
ASUS46 KPDT 141025
RWRPDT
PENDLETON REGIONAL WEATHER ROUNDUP
NATIONAL WEATHER SERVICE PENDLETON OREGON
200 AM PST THU DEC 14 2017

NOTE: FAIR INDICATES FEW OR NO CLOUDS BELOW 12,000 FEET WITH NO
SIGNIFICANT WEATHER AND/OR OBSTRUCTIONS TO VISIBILITY.

# INDICATES UNOFFICIAL STATION AND DATA

WAZ520-141110-
EAST SLOPES OF WASHINGTON CASCADES

CITY            SKY/WX      TMP DP  RH  WIND    PRES   REMARKS
#BULLFROG       N/A         27  25  92  CALM    N/A
#CLE ELUM HS    N/A         29  26  88  CALM    30.47R
#CLE ELUM LAKE  N/A         24  23  96  CALM    30.41R
#EASTON DOT     N/A         25  24  96  N3      N/A
#ELK HTS DOT    N/A         26  26  100 CALM    N/A
#GLENWOOD       N/A         27  25  92  CALM    30.63S
#NELSON 3SW     N/A         23  22  96  CALM    30.88R
#NILE           N/A         25  24  96  W1      29.89R
#TEANAWAY 4NE   N/A         27  26  96  CALM    N/A
#TROUT LAKE 1NE N/A         27  26  96  SE2     30.62F
#TROUT LAKE 1E  N/A         27  25  92  CALM    30.54F
$$

WAZ521-141110-
SIMCOE HIGHLANDS

CITY            SKY/WX      TMP DP  RH  WIND    PRES   REMARKS
#BICKLETON HS   N/A         N/A N/A N/A CALM    30.56F
#CENTERVILLE 1SWN/A         26  22  85  E3      30.61S
#GOLDENDALE 4W  N/A         28  15  58  S2      30.56S
#GOODNOE HILLS  N/A         28  23  81  E7      30.47S
#LYLE 6NE       N/A         28  26  92  CALM    30.64F
#PITT 4SE       N/A         24  23  96  CALM    30.67S
$$

WAZ026-141110-
KITTITAS VALLEY

CITY            SKY/WX      TMP DP  RH  WIND    PRES   REMARKS
ELLENSBURG AP   CLOUDY      31  27  85  NE3     30.56S
#ELLENSBURG CWU N/A         29  26  88  CALM    30.60R
#ELLENSBURG 3NE N/A         28  26  92  CALM    28.62R
#ELLENSBURG 1E  N/A         29  26  88  CALM    30.71R
#KITTITAS 3S    N/A         30  27  88  E1      30.64R
#MANASTASH RDG  N/A         26  25  96  N1      N/A
#ROCKY CYN DOT  N/A         28  28  100 NE2     N/A
#RYEGRASS DOT   N/A         26  24  92  CALM    N/A
$$

WAZ027-141110-
YAKIMA VALLEY

CITY            SKY/WX      TMP DP  RH  WIND    PRES   REMARKS
SUNNYSIDE AP    CLOUDY      30  27  88  CALM    30.62F
YAKIMA AIRPORT  CLOUDY      33  27  78  CALM    30.60F
YAKIMA-VAGABOND CLOUDY      30  25  81  CALM    30.56F
#DONALD 2NE     N/A         30  16  55  CALM    29.44S
#GRANDVIEW      N/A         30  25  81  CALM    30.56S
#MABTON         N/A         31  29  92  CALM    30.62F
#MOXEE 2E       N/A         30  N/A N/A CALM    30.66R
#NACHES 2SW     N/A         29  27  92  E1      30.55S
#OUTLOOK DOT    N/A         31  29  92  CALM    30.59S
#PARKER DOT     N/A         31  27  85  CALM    30.61S
#TERRACE HTS    N/A         30  27  88  CALM    30.63S
#TOPPENISH      N/A         31  27  85  CALM    30.58S
#I82 S UMTANUM RN/A         27  25  92  NE1     N/A
#UNION GAP DOT  N/A         31  27  85  CALM    30.64S
#W YAKIMA       N/A         28  26  92  CALM    30.66S
#WHITE SWAN 5E  N/A         30  27  88  CALM    30.67F
#WILEY CITY 3W  N/A         29  24  81  CALM    30.55S
#ZILLAH DOT     N/A         31  27  85  CALM    N/A
$$

WAZ028-141110-
LOWER COLUMBIA BASIN...WASHINGTON

CITY            SKY/WX      TMP DP  RH  WIND    PRES   REMARKS
HANFORD         CLOUDY      30  26  85  NE2     30.63S
PASCO           CLOUDY      32  27  82  CALM    30.64F
PROSSER AWOS    N/A         32  30  92  CALM    30.66S
RICHLAND AWOS   CLOUDY      32  29  89  N5      30.65S
#BENTON CITY    N/A         30  26  85  CALM    30.57S
#CONNELL 5N     N/A         28  27  96  CALM    30.66S
#CONNELL 5NW    N/A         28  26  92  CALM    30.61S
#ELTOPIA 6NW    N/A         29  27  92  CALM    29.56F
#KAHLOTUS       N/A         27  26  96  CALM    30.66S
#KENNEWICK 3S   N/A         30  27  88  CALM    30.66F
#PATERSON       N/A         31  26  81  CALM    30.63F
#PROSSER DOT    N/A         31  28  88  CALM    30.63F
#SAGEMOOR 2W    N/A         29  26  88  CALM    30.54F
#TOUCHET 2S     N/A         30  26  85  CALM    30.64S
#WEST PASCO     N/A         32  27  82  CALM    30.65S
$$

WAZ029-141110-
FOOTHILLS OF THE BLUES...WASHINGTON

CITY            SKY/WX      TMP DP  RH  WIND    PRES   REMARKS
WALLA WALLA AP  CLOUDY      29  25  85  CALM    30.59R
#CLYDE 6NW      N/A         27  25  92  CALM    30.64S
#LOWDEN 2SE     N/A         31  27  85  CALM    30.60S
#PLEASANT VIEW 1N/A         26  25  96  CALM    30.70S
#PRESCOTT       N/A         31  28  88  CALM    30.64S
#WHITMAN COLLEGEN/A         29  26  88  NW1     30.63R
#WAITSBURG 5S   N/A         26  25  96  CALM    30.76R
#WAITSBURG 6SSE N/A         27  22  81  CALM    30.61S
#WALLA WALLA 5E N/A         29  27  92  CALM    N/A
#WALLA WALLA U  N/A         31  27  85  CALM    30.66
#WHITMAN MISSIONN/A         31  27  85  CALM    30.68R
$$

WAZ030-141110-
BLUE MOUNTAINS...WASHINGTON

CITY            SKY/WX      TMP DP  RH  WIND    PRES   REMARKS
#DIXIE 5SE      N/A         22  20  92  CALM    30.39R
$$

ORZ009-041-WAZ024-141110-
COLUMBIA RIVER GORGE

CITY            SKY/WX      TMP DP  RH  WIND    PRES   REMARKS
HOOD RIVER AP   CLOUDY      32  27  82  NE3     30.60F
THE DALLES AP   CLOUDY      35  27  72  E7      30.63F
#ARLINGTON AIRPON/A         30  27  88  E3      30.66F
#ARLINGTON HS   N/A         32  26  78  CALM    30.55F
#CELILO DOT     N/A         34  24  66  CALM    N/A
#LYLE           N/A         34  29  82  E3      30.65S
#MARYHILL       N/A         31  26  81  N2      N/A
#MURDOCK        N/A         34  29  82  E1      30.61S
#RUFUS DOT      N/A         34  N/A N/A SE7     N/A
#SMITHVILLE     N/A         34  29  82  E3      30.59F

$$

ORZ510-141110-
NORTH CENTRAL OREGON

CITY            SKY/WX      TMP DP  RH  WIND    PRES   REMARKS
#ANTELOPE       N/A         22  20  92  CALM    30.54S
#CHENOWITH 1W   N/A         26  24  92  E10     N/A
#COW CYN RST AREN/A         22  N/A N/A CALM    N/A
#DUFUR          N/A         28  25  88  CALM    30.61S
#DUFUR 9E       N/A         24  23  96  CALM    30.71S
#GRASS VALLEY 1SN/A         24  23  96  CALM    30.48F
#KENT DOT       N/A         22  18  84  CALM    N/A
#MAUPIN SCHOOL  N/A         30  23  75  CALM    30.62F
#MORO SCHOOL    N/A         26  26  100 E1      30.51S
#SHANIKO 5WSW   N/A         20  N/A N/A CALM    N/A
#SHANIKO 4NW    N/A         19  18  96  E2      30.41S
#TYGH VALLEY 2NEN/A         29  25  85  CALM    30.63F
#WAPANITIA AIRPON/A         26  23  88  CALM    30.67S
#WASCO DOT      N/A         30  27  88  E3      N/A
#WASCO 5NE      N/A         28  18  66  E3      30.64S
$$

ORZ511-141110-
CENTRAL OREGON

CITY            SKY/WX      TMP DP  RH  WIND    PRES   REMARKS
BEND AIRPORT    FRZFOG      18  16  92  CALM    30.47R VSB<1/4
PRINEVILLE AP   FRZFOG      19  19  100 CALM    30.47S VSB 1/4
REDMOND AIRPORT CLOUDY      20  19  96  VRB3    30.47S FOG
#ASHWOOD SCHOOL N/A         23  20  88  CALM    30.43R
#BEND 1SW       N/A         14  11  88  CALM    N/A
#BEND-AWBREY    N/A         16  14  92  CALM    30.65R
#BEND-KIM LN    N/A         18  16  92  SW1     30.61R
#CULVER         N/A         21  19  92  CALM    30.52S
#CULVER 8W      N/A         23  17  77  CALM    30.56S
#LAKE BILLY CHINN/A         23  N/A N/A CALM    30.59S
#MADRAS 4S      N/A         22   8  54  S8      N/A
#POWELL BUTTE   N/A         18  12  77  S2      30.35R
#PRINEVILLE     N/A         21  19  92  CALM    30.76R
#PRINEVILLE 3N  N/A         21  19  92  CALM    30.65R
#WARM SPRINGS   N/A         27  23  85  CALM    30.46F

$$


ORZ509-141110-
EAST SLOPES OF OREGON CASCADES

CITY            SKY/WX      TMP DP  RH  WIND    PRES   REMARKS
SISTERS AWOS    N/A         19  18  96  CALM    N/A
#BLUE BOX PASS  N/A         18  N/A N/A CALM    N/A
#CAMP SHERMAN   N/A         20  16  84  CALM    30.65F
#LA PINE 4NW    N/A         12   7  80  CALM    30.63R
#LAVA BUTTE DOT N/A         18  14  84  CALM    N/A
#SISTERS ODOT   N/A         20  18  92  CALM    N/A
#SISTERS 3N     N/A         20  14  77  CALM    30.47R
#SUNRIVER       N/A         15  12  88  CALM    30.44R
#TUMALO 3W      N/A         15  13  92  CALM    30.54R
#WANOGA BUTTE D N/A         39   9  28  E2      N/A

$$

ORZ044-141110-
LOWER COLUMBIA BASIN...OREGON

CITY            SKY/WX      TMP DP  RH  WIND    PRES   REMARKS
HERMISTON       CLOUDY      31  27  85  E3      30.61F
#BOARDMAN SCHOOLN/A         33  29  85  N1      30.62F
#BOARDMAN 8SW   N/A         31  28  88  E3      30.65S
#ECHO 8SW       N/A         31  27  85  CALM    30.61F
#I-84 EX 198 DOTN/A         28  25  88  E1      N/A
#IONE SCHOOL    N/A         28  14  55  CALM    30.66S
#UMATILLA       N/A         33  27  78  CALM    30.58F
$$

ORZ507-141110-
NORTHERN FOOTHILLS OF THE BLUES

CITY            SKY/WX      TMP DP  RH  WIND    PRES   REMARKS
PENDLETON AIRPT CLOUDY      27  25  92  CALM    30.55F
#ADAMS 3WNW     N/A         26  24  92  SW1     30.64F
#ATHENA         N/A         26  24  92  CALM    30.67F
#CAYUSE         N/A         26  24  92  CALM    30.63F
#HELIX SCHOOL   N/A         26  24  92  CALM    30.64F
#HELIX 3N       N/A         25  24  96  CALM    30.52S
#HOLDMAN 5SE    N/A         27  25  92  CALM    30.53F
#HOLDMAN 6E     N/A         25  24  96  CALM    30.44F
#M-F GROVE ELEM N/A         28  24  85  CALM    30.55S
#M-FREEWATER 5SEN/A         27  24  88  CALM    30.55R
#PENDLETON DNTN N/A         29  23  78  CALM    30.51F
#PDT AQUATIC CTRN/A         28  25  88  CALM    30.55S
#PDT SUNRIDGE   N/A         28  25  88  CALM    30.59F
#PENDLETON 6SE  N/A         27  25  92  W1      30.60F
#PENDLETON 7NW  N/A         29  24  81  CALM    30.65F
#PILOT ROCK 1S  N/A         26  19  74  CALM    30.52F
#PILOT ROCK     N/A         27  23  85  CALM    30.52F
#TUTUILLA       N/A         25  22  88  CALM    30.62F
#UMAPINE 2E     N/A         30  27  88  CALM    30.59R
#WESTON SCHOOL  N/A         25  21  84  N1      30.46F

$$

ORZ508-141110-
SOUTHERN FOOTHILLS OF THE BLUES

CITY            SKY/WX      TMP DP  RH  WIND    PRES   REMARKS
LEXINGTON       CLOUDY      27  27  100 CALM    30.58S
#AJAX           N/A         23  16  74  N1      30.62S
#CONDON 5W      N/A         19  18  96  CALM    30.40S
#FOSSIL SCHOOL  N/A         24  23  96  CALM    30.39R
#HEPPNER EOC    N/A         24  22  92  CALM    30.57F
#HEPPNER 4NE    N/A         21  19  92  CALM    30.63F
#LEXINGTON 2SE  N/A         28  23  81  CALM    30.51S
#MIKKALO        N/A         26  23  88  E2      30.64S
#OLEX 4N        N/A         28  25  88  CALM    30.54F
#RUGGS 5NE      N/A         22  22  100 CALM    30.59F
#RUGGS 2SW      N/A         21  19  92  CALM    30.67F

$$

ORZ502-503-141110-
BLUE MOUNTAINS

CITY            SKY/WX      TMP DP  RH  WIND    PRES   REMARKS
MEACHAM         PTCLDY      14   9  80  CALM    30.42F
#BATTLE MTN DOT N/A         21  19  92  S6      N/A
#GRANITE        N/A         15   7  70  CALM    30.59S
#LADD CYN SMT   N/A         28  27  96  W2      N/A
#LADD CREEK ODOTN/A         29  -19 11  S2      N/A
#LONG CREEK HS  N/A         20  20  100 CALM    30.43S
#N POWDER DOT   N/A         24  23  96  CALM    N/A
#PIKES PEAK     N/A         18  15  88  CALM    27.99S
#SUMMERVILLE 5NWN/A         21  20  96  CALM    30.51S
#TOLLGATE       N/A         24  23  96  CALM    30.37S
#TROY SCHOOL    N/A         29  26  88  CALM    30.50F
#UKIAH          N/A         11   9  91  CALM    30.55R
#WESTON 4E      N/A         19  17  92  CALM    30.61S
$$

ORZ505-141110-
JOHN DAY BASIN

CITY            SKY/WX      TMP DP  RH  WIND    PRES   REMARKS
JOHN DAY        CLEAR       25  20  81  E6      30.43S
#ANTELOPE 9ESE  N/A         28  23  81  E1      N/A
#DAYVILLE SCHOOLN/A         18  14  84  CALM    30.44R
#MITCHELL 8NW   N/A         19  17  92  CALM    30.71R
#MONUMENT HS    N/A         16  12  84  CALM    30.46R
#MT. VERNON 5SE N/A         26  20  78  CALM    30.36S
#SPRAY SCHOOL   N/A         25  N/A N/A CALM    N/A
$$

ORZ506-141110-
OCHOCO AND JOHN DAY HIGHLANDS

CITY            SKY/WX      TMP DP  RH  WIND    PRES   REMARKS
#HORSE RIDGE DO N/A          4  -1  79  SE3     N/A
#IZEE 6NW       N/A         15  13  92  CALM    N/A
#PAULINA ODOT   N/A         18  16  92  CALM    N/A
#PINE MTN OBS   N/A         33  21  61  S8      N/A
#SENECA         N/A         10  N/A N/A CALM    N/A
#SENECA 9NW     N/A         14  12  92  CALM    30.58R
$$

ORZ049-141110-
GRANDE RONDE VALLEY

CITY            SKY/WX      TMP DP  RH  WIND    PRES   REMARKS
LA GRANDE       CLOUDY      28  25  88  S3      30.50S
#COVE SCHOOL    N/A         30  27  88  CALM    30.45S
#COVE 6NW       N/A         29  26  88  CALM    30.63S
#ELGIN 3N       N/A         24  18  77  CALM    30.42S
#ELGIN 1E       N/A         27  22  81  CALM    N/A
#IMBLER SCHOOL  N/A         26  23  88  CALM    30.42S
#ISLAND CITY 4N N/A         33  30  89  CALM    30.37F
#LADD CYN DOT   N/A         31  28  88  N2      N/A
#UNION 1S       N/A         30  27  88  CALM    30.62F
$$

ORZ050-141110-
WALLOWA COUNTY

CITY            SKY/WX      TMP DP  RH  WIND    PRES   REMARKS
JOSEPH AIRPORT  FRZFOG      23  21  92  CALM    30.43F VSB 1/4
#ENTERPRISE HS  N/A         25  24  96  CALM    30.50S
#IMNAHA SCHOOL  N/A         32  29  89  NW1     30.51S
#IMNAHA 10S     N/A         27  25  92  CALM    30.44S
#JOSEPH         N/A         23  19  84  CALM    30.88F
#JOSEPH 3N      N/A         23  19  84  CALM    30.42F
#JOSEPH 3W      N/A         19  18  96  CALM    30.88S
#LOSTINE        N/A         25  23  92  E3      30.42F
#LOSTINE 3SE    N/A         25  24  96  SW1     30.48F
#MT HOWARD 8000 N/A         36   5  27  CALM    30.33F
#PROMISE 1S     N/A         21  19  92  CALM    30.70S
#WALLOWA SCHOOL N/A         27  25  92  CALM    30.42S



$$



USA.gov is the U.S. government's official web portal to all federal, state and local government web resources and services.